Bastrop, LA

8:55 PM CDT on May 22, 2017 (GMT -0500)
Bastrop

Weather History for KBQP - February, 2013

Change the Weather History Date:

Saturday, February 23, 2013

  Actual Average (KMLU) Record (KMLU)
Temperature  
Mean Temperature 48 °F -  
Max Temperature 59 °F 63 °F 89 °F (2012)
Min Temperature 37 °F 40 °F 23 °F (1963)
Degree Days  
Heating Degree Days 17    
Moisture  
Dew Point 36 °F    
Average Humidity 68    
Maximum Humidity 91    
Minimum Humidity 39    
Precipitation  
Precipitation 0.00 in - - ()
Sea Level Pressure  
Sea Level Pressure 30.01 in    
Wind  
Wind Speed 1 mph (NE)    
Max Wind Speed 8 mph    
Max Gust Speed -    
Visibility 10 miles    
Events      
Averages and records for this station are not official NWS values.
T = Trace of Precipitation, MM = Missing Value Source: NWS Daily Summary

Daily Weather History Graph

Daily Weather History Graph

Search for Another Location

Airport or City:

Trip Planner

Search our weather history database for the weather conditions in past years. The results will help you decide how hot, cold, wet, or windy it might be!

Date:

Astronomy

Feb. 23, 2013 Rise Set
Actual Time 6:41 AM CST 6:00 PM CST
Civil Twilight 6:17 AM CST 6:25 PM CST
Nautical Twilight 5:48 AM CST 6:53 PM CST
Astronomical Twilight 5:19 AM CST 7:22 PM CST
Moon 4:13 PM CST 5:00 AM CST
Length of Visible Light 12h 08m
Length of Day
11h 18m
Waxing Gibbous, 95% of the Moon is Illuminated
Feb 23
Waxing Gibbous
Feb 25
Full
Mar 4
Last Quarter
Mar 11
New
Mar 19
First Quarter

Hourly Weather History & Observations

Time (CST) Temp. Windchill Dew Point Humidity Pressure Visibility Wind Dir Wind Speed Gust Speed Precip Events Conditions
12:15 AM 48.4 °F - 41.0 °F 76% 30.05 in 10.0 mi Calm Calm - N/A   Overcast
12:35 AM 48.2 °F - 41.0 °F 76% 30.05 in 10.0 mi Calm Calm - N/A   Overcast
12:55 AM 47.5 °F - 40.1 °F 76% 30.05 in 10.0 mi Calm Calm - N/A   Mostly Cloudy
1:15 AM 46.4 °F - 39.2 °F 76% 30.04 in 10.0 mi Calm Calm - N/A   Mostly Cloudy
1:35 AM 45.9 °F - 38.3 °F 75% 30.04 in 10.0 mi Calm Calm - N/A   Scattered Clouds
1:55 AM 45.0 °F - 37.8 °F 76% 30.04 in 10.0 mi Calm Calm - N/A   Scattered Clouds
2:15 AM 44.4 °F - 36.9 °F 75% 30.03 in 10.0 mi Calm Calm - N/A   Clear
2:35 AM 43.7 °F - 36.1 °F 75% 30.02 in 10.0 mi Calm Calm - N/A   Clear
2:55 AM 43.2 °F - 35.2 °F 74% 30.02 in 10.0 mi Calm Calm - N/A   Clear
3:15 AM 42.8 °F - 35.2 °F 75% 30.02 in 10.0 mi Calm Calm - N/A   Clear
3:35 AM 42.1 °F - 35.6 °F 78% 30.01 in 10.0 mi Calm Calm - N/A   Clear
3:55 AM 41.4 °F - 35.4 °F 79% 30.01 in 10.0 mi Calm Calm - N/A   Clear
4:15 AM 40.8 °F - 35.4 °F 81% 30.01 in 10.0 mi Calm Calm - N/A   Clear
4:35 AM 40.1 °F - 35.4 °F 83% 30.00 in 10.0 mi Calm Calm - N/A   Clear
4:55 AM 39.6 °F - 35.2 °F 85% 30.00 in 10.0 mi Calm Calm - N/A   Clear
5:15 AM 39.2 °F - 35.2 °F 86% 30.00 in 10.0 mi Calm Calm - N/A   Clear
5:35 AM 38.8 °F - 35.2 °F 87% 30.01 in 10.0 mi Calm Calm - N/A   Clear
5:55 AM 38.7 °F - 35.2 °F 87% 30.02 in 10.0 mi Calm Calm - N/A   Clear
6:15 AM 38.5 °F - 35.2 °F 88% 30.00 in 10.0 mi Calm Calm - N/A   Clear
6:35 AM 37.9 °F - 35.1 °F 89% 30.00 in 10.0 mi Calm Calm - N/A   Clear
6:55 AM 37.9 °F - 35.1 °F 89% 30.02 in 7.0 mi Calm Calm - N/A   Clear
7:15 AM 38.1 °F - 35.2 °F 89% 30.04 in 7.0 mi Calm Calm - N/A   Clear
7:35 AM 39.2 °F - 35.6 °F 87% 30.06 in 7.0 mi Calm Calm - N/A   Clear
7:55 AM 38.7 °F - 35.1 °F 87% 30.06 in 10.0 mi Calm Calm - N/A   Clear
8:15 AM 40.6 °F - 34.9 °F 80% 30.07 in 10.0 mi Calm Calm - N/A   Clear
8:35 AM 42.1 °F 39.2 °F 34.5 °F 75% 30.07 in 10.0 mi NNE 4.6 mph - N/A   Clear
8:55 AM 43.2 °F - 33.1 °F 68% 30.07 in 10.0 mi Calm Calm - N/A   Clear
9:15 AM 43.3 °F 38.6 °F 32.7 °F 66% 30.06 in 10.0 mi NE 8.1 mph - N/A   Clear
9:35 AM 45.0 °F 42.6 °F 31.8 °F 60% 30.07 in 10.0 mi NNE 4.6 mph - N/A   Clear
9:55 AM 45.9 °F 43.6 °F 31.8 °F 58% 30.07 in 10.0 mi NNE 4.6 mph - N/A   Clear
10:15 AM 46.4 °F 44.3 °F 30.9 °F 55% 30.06 in 10.0 mi NNE 4.6 mph - N/A   Clear
10:35 AM 48.6 °F - 31.6 °F 52% 30.06 in 10.0 mi NNE 5.8 mph - N/A   Clear
10:55 AM 49.5 °F - 31.8 °F 51% 30.05 in 10.0 mi NNE 4.6 mph - N/A   Clear
11:15 AM 50.0 °F - 30.9 °F 48% 30.04 in 10.0 mi NNE 5.8 mph - N/A   Clear
11:35 AM 50.9 °F - 32.2 °F 49% 30.03 in 10.0 mi Calm Calm - N/A   Clear
11:55 AM 53.1 °F - 32.2 °F 45% 30.02 in 10.0 mi ENE 6.9 mph - N/A   Clear
12:15 PM 54.0 °F - 32.5 °F 44% 30.01 in 10.0 mi North 4.6 mph - N/A   Clear
12:35 PM 55.0 °F - 33.1 °F 43% 30.00 in 10.0 mi Calm Calm - N/A   Clear
12:55 PM 54.9 °F - 33.4 °F 44% 29.99 in 10.0 mi NE 3.5 mph - N/A   Clear
1:15 PM 56.5 °F - 31.6 °F 39% 29.98 in 10.0 mi North 3.5 mph - N/A   Clear
1:35 PM 57.4 °F - 32.7 °F 39% 29.98 in 10.0 mi East 5.8 mph - N/A   Clear
1:55 PM 57.0 °F - 35.1 °F 44% 29.98 in 10.0 mi ENE 5.8 mph - N/A   Clear
2:15 PM 57.4 °F - 35.4 °F 44% 29.97 in 10.0 mi East 5.8 mph - N/A   Clear
2:35 PM 59.2 °F - 35.2 °F 41% 29.97 in 10.0 mi Calm Calm - N/A   Clear
2:55 PM 59.2 °F - 35.1 °F 40% 29.96 in 10.0 mi NE 3.5 mph - N/A   Clear
3:15 PM 59.0 °F - 35.6 °F 42% 29.96 in 10.0 mi ENE 6.9 mph - N/A   Clear
3:35 PM 59.0 °F - 36.0 °F 42% 29.97 in 10.0 mi East 3.5 mph - N/A   Clear
3:55 PM 59.2 °F - 36.9 °F 43% 29.96 in 10.0 mi ENE 5.8 mph - N/A   Clear
4:15 PM 58.5 °F - 37.2 °F 45% 29.97 in 10.0 mi Calm Calm - N/A   Clear
4:35 PM 58.1 °F - 38.1 °F 47% 29.97 in 10.0 mi East 5.8 mph - N/A   Clear
4:55 PM 57.4 °F - 38.1 °F 49% 29.98 in 10.0 mi Calm Calm - N/A   Clear
5:15 PM 56.5 °F - 38.5 °F 51% 29.98 in 10.0 mi Calm Calm - N/A   Clear
5:35 PM 55.4 °F - 38.5 °F 53% 29.98 in 10.0 mi Calm Calm - N/A   Clear
5:55 PM 53.4 °F - 38.7 °F 57% 29.99 in 10.0 mi Calm Calm - N/A   Clear
6:15 PM 50.9 °F - 39.2 °F 64% 29.99 in 10.0 mi Calm Calm - N/A   Clear
6:35 PM 48.0 °F - 40.1 °F 74% 29.99 in 10.0 mi Calm Calm - N/A   Clear
6:55 PM 46.8 °F - 39.6 °F 76% 29.99 in 10.0 mi Calm Calm - N/A   Clear
7:15 PM 47.5 °F - 39.2 °F 73% 29.99 in 10.0 mi Calm Calm - N/A   Clear
7:35 PM 46.4 °F - 38.8 °F 75% 29.99 in 10.0 mi Calm Calm - N/A   Clear
7:55 PM 45.1 °F - 39.2 °F 80% 29.99 in 10.0 mi Calm Calm - N/A   Clear
8:15 PM 45.0 °F - 38.5 °F 78% 29.99 in 10.0 mi Calm Calm - N/A   Clear
8:35 PM 44.6 °F - 37.9 °F 77% 29.99 in 10.0 mi Calm Calm - N/A   Clear
8:55 PM 44.4 °F - 37.9 °F 78% 29.99 in 10.0 mi Calm Calm - N/A   Clear
9:15 PM 44.1 °F - 37.9 °F 79% 29.99 in 10.0 mi Calm Calm - N/A   Clear
9:35 PM 43.2 °F - 37.6 °F 81% 30.00 in 10.0 mi Calm Calm - N/A   Clear
9:55 PM 40.8 °F - 36.7 °F 85% 30.00 in 10.0 mi Calm Calm - N/A   Clear
10:15 PM 40.8 °F - 37.0 °F 86% 30.01 in 10.0 mi Calm Calm - N/A   Clear
10:35 PM 40.1 °F - 37.0 °F 89% 30.00 in 10.0 mi Calm Calm - N/A   Clear
10:55 PM 38.7 °F - 36.0 °F 90% 30.01 in 10.0 mi Calm Calm - N/A   Clear
11:15 PM 39.2 °F - 36.7 °F 91% 30.01 in 10.0 mi Calm Calm - N/A   Clear
11:35 PM 37.9 °F - 35.4 °F 91% 30.02 in 10.0 mi Calm Calm - N/A   Clear
11:55 PM 37.2 °F - 34.9 °F 91% 30.02 in 7.0 mi Calm Calm - N/A   Clear